WetterOnline ( http://www.wetteronline.de )

Wetter aktuell Neroth

Aktuelles Wetter: Nürburg-Barweiler (488m)

6-stündlich | Neueste Meldungen
Ortszeit Temperatur Wetter
Mi, 18.07. 14:00 21.8° C bedeckt
Mi, 18.07. 8:00 13.6° C leicht bewölkt
Mi, 18.07. 2:00 14.5° C leicht bewölkt
Di, 17.07. 20:00 20.9° C wolkenlos
Di, 17.07. 14:00 22.2° C bewölkt
Di, 17.07. 8:00 18.1° C bedeckt
Di, 17.07. 2:00 18.6° C bewölkt
Mo, 16.07. 20:00 24.3° C wolkig
Ortszeit Temperatur Wetter
Mi, 18.07. 18:00 21.6° C wolkenlos
Mi, 18.07. 17:50 21.6° C wolkenlos
Mi, 18.07. 17:40 21.7° C leicht bewölkt
Mi, 18.07. 17:30 23.0° C bewölkt
Mi, 18.07. 17:20 23.0° C bedeckt
Mi, 18.07. 17:10 23.0° C bedeckt
Mi, 18.07. 17:00 22.0° C bedeckt
Mi, 18.07. 16:30 22.3° C bedeckt
Mi, 18.07. 16:00 22.2° C bedeckt
Mi, 18.07. 15:30 22.1° C bedeckt
Mi, 18.07. 15:00 22.4° C bedeckt
Ortszeit Relative Feuchte Sichtweite
Mi, 18.07. 14:00 43% 35 km
Mi, 18.07. 8:00 71% 19 km
Mi, 18.07. 2:00 73% 28 km
Di, 17.07. 20:00 58% 40 km
Di, 17.07. 14:00 67% 28 km
Di, 17.07. 8:00 55% 40 km
Di, 17.07. 2:00 42% 29 km
Mo, 16.07. 20:00 29% 50 km
Ortszeit Relative Feuchte Sichtweite
Mi, 18.07. 18:00 44% 40 km
Mi, 18.07. 17:50 44% -
Mi, 18.07. 17:40 42% -
Mi, 18.07. 17:30 39% 40 km
Mi, 18.07. 17:20 39% -
Mi, 18.07. 17:10 39% -
Mi, 18.07. 17:00 42% 45 km
Mi, 18.07. 16:30 38% 45 km
Mi, 18.07. 16:00 42% 35 km
Mi, 18.07. 15:30 42% 45 km
Mi, 18.07. 15:00 39% 45 km
Ortszeit Niederschlagsmenge Niederschlagsart
Mi, 18.07. 14:00 0.0 l/m2 in 6 Std. -
Mi, 18.07. 8:00 0.0 l/m2 in 12 Std. -
Mi, 18.07. 2:00 0.0 l/m2 in 6 Std. -
Di, 17.07. 20:00 2 l/m2 in 12 Std. Regen
Di, 17.07. 14:00 2 l/m2 in 6 Std. Regenschauer
Di, 17.07. 8:00 0.0 l/m2 in 12 Std. -
Di, 17.07. 2:00 0.0 l/m2 in 6 Std. -
Mo, 16.07. 20:00 0.0 l/m2 in 12 Std. -
Ortszeit Niederschlagsmenge Niederschlagsart
Mi, 18.07. 18:00 0.0 l/m2 in 1 Std. -
Mi, 18.07. 17:50 keine Meldung -
Mi, 18.07. 17:40 keine Meldung -
Mi, 18.07. 17:30 0.0 l/m2 in 1 Std. -
Mi, 18.07. 17:20 keine Meldung -
Mi, 18.07. 17:10 keine Meldung -
Mi, 18.07. 17:00 0.0 l/m2 in 1 Std. -
Mi, 18.07. 16:30 0.0 l/m2 in 1 Std. -
Mi, 18.07. 16:00 0.0 l/m2 in 1 Std. -
Mi, 18.07. 15:30 0.0 l/m2 in 1 Std. -
Mi, 18.07. 15:00 0.0 l/m2 in 1 Std. -
Ortszeit Stärke Spitze Richtung
km/h Bft. km/h Grad Sektor
Mi, 18.07. 14:00 11 2 25 310° NW
Mi, 18.07. 8:00 2 1 13 280° W
Mi, 18.07. 2:00 7 2 22 360° N
Di, 17.07. 20:00 9 2 48 10° N
Di, 17.07. 14:00 7 2 25 70° O
Di, 17.07. 8:00 4 1 11 220° SW
Di, 17.07. 2:00 7 2 18 190° S
Mo, 16.07. 20:00 9 2 28 350° N
Ortszeit Stärke Spitze Richtung
km/h Bft. km/h Grad Sektor
Mi, 18.07. 18:00 7 2 18 350° N
Mi, 18.07. 17:50 7 2 - 350° N
Mi, 18.07. 17:40 7 2 - 330° NW
Mi, 18.07. 17:30 11 2 18 330° NW
Mi, 18.07. 17:20 11 2 - 330° NW
Mi, 18.07. 17:10 4 1 - 60° NO
Mi, 18.07. 17:00 11 2 25 320° NW
Mi, 18.07. 16:30 9 2 19 310° NW
Mi, 18.07. 16:00 11 2 20 320° NW
Mi, 18.07. 15:30 11 2 22 360° N
Mi, 18.07. 15:00 4 1 29 330° NW
Ortszeit Untergrenze Bedeckung Gattung
total tief tief mittel hoch
Mi, 18.07. 14:00 - 8/8 - - - -
Mi, 18.07. 8:00 2100 m 2/8 2/8 - - -
Mi, 18.07. 2:00 2700 m 2/8 2/8 - - -
Di, 17.07. 20:00 - 0/8 0/8 - - -
Di, 17.07. 14:00 1800 m 7/8 7/8 - - -
Di, 17.07. 8:00 3300 m 8/8 8/8 - - -
Di, 17.07. 2:00 4200 m 8/8 6/8 - - -
Mo, 16.07. 20:00 2100 m 6/8 - - - -
Ortszeit Bedeckungsgrad in Achtel und Wolkenuntergrenze
Mi, 18.07. 18:00 keine Wolken
Mi, 18.07. 17:50 keine Wolken
Mi, 18.07. 17:40 2(1800m)
Mi, 18.07. 17:30 5(1800m) 9 9
Mi, 18.07. 17:20 9 9 9
Mi, 18.07. 17:10 9 9 9
Mi, 18.07. 17:00 8(1800m)
Mi, 18.07. 16:30 8(1800m) 9 9
Mi, 18.07. 16:00 8(1800m)
Mi, 18.07. 15:30 8(1500m)
Mi, 18.07. 15:00 8(1800m)
Ortszeit Luftdruck NN (hPa) Tendenz (hPa in 3 Std.)
Mi, 18.07. 14:00 1018 - 0,4
Mi, 18.07. 8:00 1020 + 0,5
Mi, 18.07. 2:00 1019 + 0,8
Di, 17.07. 20:00 1016 + 0,7
Di, 17.07. 14:00 1014 0,0
Di, 17.07. 8:00 1015 + 1,0
Di, 17.07. 2:00 1014 + 0,5
Mo, 16.07. 20:00 1011 + 0,1
Ortszeit Luftdruck NN (hPa) Tendenz (hPa in 3 Std.)
Mi, 18.07. 18:00 1017 - 0,5
Mi, 18.07. 17:50 1017 keine Meldung
Mi, 18.07. 17:40 1017 keine Meldung
Mi, 18.07. 17:30 1017 - 0,4
Mi, 18.07. 17:20 1017 keine Meldung
Mi, 18.07. 17:10 1017 keine Meldung
Mi, 18.07. 17:00 1017 - 0,3
Mi, 18.07. 16:30 1017 - 0,3
Mi, 18.07. 16:00 1017 - 0,3
Mi, 18.07. 15:30 1017 - 0,4
Mi, 18.07. 15:00 1017 - 0,5
Ortszeit Schneehöhe (cm)
Mi, 18.07. 14:00 -
Mi, 18.07. 8:00 -
Mi, 18.07. 2:00 -
Di, 17.07. 20:00 -
Di, 17.07. 14:00 -
Di, 17.07. 8:00 -
Di, 17.07. 2:00 -
Mo, 16.07. 20:00 -
Ortszeit Schneehöhe (cm)
Mi, 18.07. 18:00 -
Mi, 18.07. 17:50 -
Mi, 18.07. 17:40 -
Mi, 18.07. 17:30 -
Mi, 18.07. 17:20 -
Mi, 18.07. 17:10 -
Mi, 18.07. 17:00 -
Mi, 18.07. 16:30 -
Mi, 18.07. 16:00 -
Mi, 18.07. 15:30 -
Mi, 18.07. 15:00 -
Link zu dieser Seite / Seite empfehlen

Das Wetter in ...